| time (UTC) | temp F | wind direction | speed MPH | gust MPH | rain 1hr in | rain 24hr in | rain mn in | humidity % | barometer mb |
| 20260508060539 | 67 | 329 | 15.0 | 0.0 | 0.00 | 0.00 | 0.00 | 67 | 1009.7 |
| 20260508060107 | 67 | 312 | 13.0 | 0.0 | 0.00 | 0.00 | 0.00 | 66 | 1009.7 |
| 20260508055535 | 67 | 293 | 15.0 | 0.0 | 0.00 | 0.00 | 0.00 | 63 | 1009.7 |
| 20260508055040 | 67 | 292 | 14.0 | 0.0 | 0.00 | 0.00 | 0.00 | 60 | 1009.8 |
| 20260508054548 | 67 | 322 | 13.0 | 0.0 | 0.00 | 0.00 | 0.00 | 60 | 1009.8 |
| 20260508054051 | 68 | 319 | 13.0 | 0.0 | 0.00 | 0.00 | 0.00 | 60 | 1009.8 |
| 20260508053536 | 67 | 323 | 13.0 | 0.0 | 0.00 | 0.00 | 0.00 | 61 | 1009.9 |
| 20260508053043 | 67 | 360 | 14.0 | 0.0 | 0.00 | 0.00 | 0.00 | 62 | 1009.9 |
| 20260508052532 | 67 | 344 | 16.0 | 0.0 | 0.00 | 0.00 | 0.00 | 63 | 1009.9 |
| 20260508052034 | 67 | 300 | 15.0 | 0.0 | 0.00 | 0.00 | 0.00 | 61 | 1010.0 |
| 20260508051540 | 67 | 347 | 14.0 | 0.0 | 0.00 | 0.00 | 0.00 | 63 | 1010.0 |
| 20260508051048 | 67 | 337 | 14.0 | 0.0 | 0.00 | 0.00 | 0.00 | 61 | 1010.0 |
| 20260508050554 | 67 | 316 | 14.0 | 0.0 | 0.00 | 0.00 | 0.00 | 56 | 1010.3 |
| 20260508050034 | 68 | 344 | 13.0 | 0.0 | 0.00 | 0.00 | 0.00 | 53 | 1010.3 |
| 20260508045540 | 68 | 335 | 13.0 | 0.0 | 0.00 | 0.00 | 0.00 | 55 | 1010.3 |
| 20260508045041 | 68 | 342 | 14.0 | 0.0 | 0.00 | 0.00 | 0.00 | 58 | 1010.3 |
| 20260508044529 | 67 | 311 | 15.0 | 0.0 | 0.00 | 0.00 | 0.00 | 58 | 1010.3 |
| 20260508044036 | 67 | 358 | 16.0 | 0.0 | 0.00 | 0.00 | 0.00 | 59 | 1010.3 |
| 20260508043539 | 67 | 338 | 16.0 | 0.0 | 0.00 | 0.00 | 0.00 | 60 | 1010.3 |
| 20260508043027 | 68 | 326 | 14.0 | 0.0 | 0.00 | 0.00 | 0.00 | 59 | 1010.3 |
| 20260508042529 | 68 | 327 | 15.0 | 0.0 | 0.00 | 0.00 | 0.00 | 63 | 1010.3 |
| 20260508042032 | 67 | 358 | 16.0 | 0.0 | 0.00 | 0.00 | 0.00 | 66 | 1010.2 |
| 20260508041601 | 68 | 316 | 17.0 | 0.0 | 0.00 | 0.00 | 0.00 | 68 | 1010.2 |
| 20260508041046 | 68 | 255 | 15.0 | 0.0 | 0.00 | 0.00 | 0.00 | 65 | 1010.2 |
| 20260508040530 | 69 | 307 | 12.0 | 0.0 | 0.00 | 0.00 | 0.00 | 69 | 1010.2 |
| 20260508040036 | 69 | 337 | 13.0 | 0.0 | 0.00 | 0.00 | 0.00 | 67 | 1010.2 |
| 20260508035542 | 68 | 282 | 14.0 | 0.0 | 0.00 | 0.00 | 0.00 | 69 | 1010.2 |
| 20260508035048 | 68 | 356 | 14.0 | 0.0 | 0.00 | 0.00 | 0.00 | 69 | 1010.1 |
| 20260508034529 | 68 | 307 | 15.0 | 0.0 | 0.00 | 0.00 | 0.00 | 73 | 1010.1 |
| 20260508034036 | 68 | 356 | 15.0 | 0.0 | 0.00 | 0.00 | 0.00 | 72 | 1010.1 |
| 20260508033539 | 68 | 325 | 16.0 | 0.0 | 0.00 | 0.00 | 0.00 | 72 | 1010.1 |
| 20260508033045 | 68 | 318 | 16.0 | 0.0 | 0.00 | 0.00 | 0.00 | 72 | 1010.1 |
| 20260508032532 | 68 | 309 | 15.0 | 0.0 | 0.00 | 0.00 | 0.00 | 71 | 1010.1 |
| 20260508032035 | 68 | 358 | 15.0 | 0.0 | 0.00 | 0.00 | 0.00 | 72 | 1009.9 |
| 20260508031602 | 68 | 295 | 15.0 | 0.0 | 0.00 | 0.00 | 0.00 | 71 | 1009.9 |
| 20260508031043 | 67 | 358 | 15.0 | 0.0 | 0.00 | 0.00 | 0.00 | 72 | 1009.9 |
| 20260508030549 | 67 | 349 | 16.0 | 0.0 | 0.00 | 0.00 | 0.00 | 73 | 1010.1 |
| 20260508030034 | 68 | 357 | 15.0 | 0.0 | 0.00 | 0.00 | 0.00 | 75 | 1010.1 |
| 20260508025539 | 68 | 350 | 14.0 | 0.0 | 0.00 | 0.00 | 0.00 | 75 | 1010.1 |
| 20260508025052 | 68 | 356 | 15.0 | 0.0 | 0.00 | 0.00 | 0.00 | 75 | 1010.2 |
| 20260508024530 | 69 | 330 | 14.0 | 0.0 | 0.00 | 0.00 | 0.00 | 73 | 1010.2 |
| 20260508024034 | 69 | 343 | 11.0 | 0.0 | 0.00 | 0.00 | 0.00 | 75 | 1010.2 |
| 20260508023540 | 68 | 309 | 11.0 | 0.0 | 0.00 | 0.00 | 0.00 | 77 | 1010.1 |
| 20260508023107 | 68 | 356 | 14.0 | 0.0 | 0.00 | 0.00 | 0.00 | 77 | 1010.1 |
| 20260508022553 | 68 | 360 | 13.0 | 0.0 | 0.00 | 0.00 | 0.00 | 77 | 1010.1 |
| 20260508022037 | 68 | 329 | 12.0 | 0.0 | 0.00 | 0.00 | 0.00 | 77 | 1009.9 |
| 20260508021544 | 68 | 314 | 12.0 | 0.0 | 0.00 | 0.00 | 0.00 | 77 | 1009.9 |
| 20260508021052 | 68 | 316 | 13.0 | 0.0 | 0.00 | 0.00 | 0.00 | 77 | 1009.9 |
| 20260508020532 | 68 | 299 | 15.0 | 0.0 | 0.00 | 0.00 | 0.00 | 78 | 1010.1 |
| 20260508020101 | 68 | 288 | 15.0 | 0.0 | 0.00 | 0.00 | 0.00 | 77 | 1010.1 |
| 20260508015542 | 68 | 321 | 13.0 | 0.0 | 0.00 | 0.00 | 0.00 | 78 | 1010.1 |
| 20260508015043 | 68 | 333 | 11.0 | 0.0 | 0.00 | 0.00 | 0.00 | 78 | 1010.1 |
| 20260508014528 | 68 | 305 | 10.0 | 0.0 | 0.00 | 0.00 | 0.00 | 79 | 1010.1 |
| 20260508014056 | 68 | 338 | 9.0 | 0.0 | 0.00 | 0.00 | 0.00 | 80 | 1010.1 |
| 20260508013536 | 68 | 316 | 10.0 | 0.0 | 0.00 | 0.00 | 0.00 | 80 | 1010.2 |
| 20260508013042 | 68 | 338 | 11.0 | 0.0 | 0.00 | 0.00 | 0.00 | 81 | 1010.2 |
| 20260508012545 | 67 | 326 | 11.0 | 0.0 | 0.00 | 0.00 | 0.00 | 82 | 1010.2 |
| 20260508012044 | 67 | 358 | 10.0 | 0.0 | 0.00 | 0.00 | 0.00 | 83 | 1010.1 |
| 20260508011553 | 67 | 303 | 12.0 | 0.0 | 0.00 | 0.00 | 0.00 | 83 | 1010.1 |
| 20260508011039 | 67 | 315 | 11.0 | 0.0 | 0.00 | 0.00 | 0.00 | 84 | 1010.1 |
| 20260508010543 | 67 | 313 | 10.0 | 0.0 | 0.00 | 0.00 | 0.00 | 85 | 1009.8 |
| 20260508010030 | 67 | 328 | 11.0 | 0.0 | 0.00 | 0.00 | 0.00 | 85 | 1009.8 |
| 20260508005559 | 67 | 323 | 11.0 | 0.0 | 0.00 | 0.00 | 0.00 | 84 | 1009.8 |
| 20260508005041 | 68 | 1 | 12.0 | 0.0 | 0.00 | 0.00 | 0.00 | 84 | 1009.8 |
| 20260508004529 | 68 | 332 | 11.0 | 0.0 | 0.00 | 0.00 | 0.00 | 84 | 1009.8 |
| 20260508004032 | 68 | 358 | 11.0 | 0.0 | 0.00 | 0.00 | 0.00 | 84 | 1009.8 |
| 20260508003558 | 68 | 329 | 12.0 | 0.0 | 0.00 | 0.00 | 0.00 | 85 | 1009.9 |
| 20260508003045 | 68 | 306 | 10.0 | 0.0 | 0.00 | 0.00 | 0.00 | 84 | 1009.9 |
| 20260508002533 | 68 | 335 | 9.0 | 0.0 | 0.00 | 0.00 | 0.00 | 85 | 1009.9 |
| 20260508002035 | 68 | 334 | 9.0 | 0.0 | 0.00 | 0.00 | 0.00 | 86 | 1009.7 |
| 20260508001543 | 68 | 342 | 11.0 | 0.0 | 0.00 | 0.00 | 0.00 | 87 | 1009.7 |
| 20260508001030 | 68 | 360 | 11.0 | 0.0 | 0.00 | 0.00 | 0.00 | 88 | 1009.7 |
| 20260508000531 | 68 | 358 | 12.0 | 0.0 | 0.00 | 0.00 | 0.00 | 87 | 1009.6 |
| 20260508000039 | 68 | 341 | 12.0 | 0.0 | 0.00 | 0.00 | 0.00 | 86 | 1009.6 |
| 20260507235545 | 69 | 345 | 12.0 | 0.0 | 0.00 | 0.00 | 0.00 | 86 | 1009.6 |
| 20260507235030 | 69 | 326 | 13.0 | 0.0 | 0.00 | 0.00 | 0.00 | 84 | 1009.4 |
| 20260507234557 | 69 | 314 | 13.0 | 0.0 | 0.00 | 0.00 | 0.00 | 83 | 1009.4 |
| 20260507234103 | 69 | 318 | 11.0 | 0.0 | 0.00 | 0.00 | 0.00 | 83 | 1009.4 |
| 20260507233605 | 69 | 290 | 10.0 | 0.0 | 0.00 | 0.00 | 0.00 | 85 | 1009.0 |
| 20260507233028 | 69 | 302 | 10.0 | 0.0 | 0.00 | 0.00 | 0.00 | 86 | 1009.0 |
| 20260507232618 | 70 | 358 | 9.0 | 0.0 | 0.00 | 0.00 | 0.00 | 86 | 1009.0 |
| 20260507232030 | 70 | 326 | 8.0 | 0.0 | 0.00 | 0.00 | 0.00 | 88 | 1009.1 |
| 20260507231607 | 70 | 316 | 6.0 | 0.0 | 0.00 | 0.00 | 0.00 | 89 | 1009.1 |
| 20260507231051 | 70 | 322 | 5.0 | 0.0 | 0.00 | 0.00 | 0.00 | 89 | 1009.1 |
| 20260507230555 | 70 | 267 | 5.0 | 0.0 | 0.00 | 0.00 | 0.00 | 90 | 1009.3 |
| 20260507230101 | 70 | 289 | 7.0 | 0.0 | 0.00 | 0.00 | 0.00 | 91 | 1009.3 |
| 20260507225545 | 70 | 279 | 8.0 | 0.0 | 0.00 | 0.00 | 0.00 | 91 | 1009.3 |
| 20260507225045 | 70 | 262 | 8.0 | 0.0 | 0.00 | 0.00 | 0.00 | 91 | 1009.3 |
| 20260507224531 | 70 | 300 | 8.0 | 0.0 | 0.00 | 0.00 | 0.00 | 91 | 1009.3 |
| 20260507224034 | 70 | 293 | 7.0 | 0.0 | 0.00 | 0.00 | 0.00 | 92 | 1009.3 |
| 20260507223539 | 70 | 352 | 7.0 | 0.0 | 0.00 | 0.00 | 0.00 | 92 | 1009.2 |
| 20260507223045 | 69 | 297 | 7.0 | 0.0 | 0.00 | 0.00 | 0.00 | 92 | 1009.2 |
| 20260507222530 | 69 | 324 | 6.0 | 0.0 | 0.00 | 0.00 | 0.00 | 93 | 1009.2 |
| 20260507222034 | 69 | 287 | 6.0 | 0.0 | 0.00 | 0.00 | 0.00 | 93 | 1009.0 |
| 20260507221533 | 69 | 326 | 7.0 | 0.0 | 0.00 | 0.00 | 0.00 | 94 | 1009.0 |
| 20260507221034 | 69 | 263 | 6.0 | 0.0 | 0.00 | 0.00 | 0.00 | 95 | 1009.0 |
| 20260507220535 | 69 | 324 | 5.0 | 0.0 | 0.00 | 0.00 | 0.00 | 95 | 1008.7 |
| 20260507220040 | 69 | 314 | 5.0 | 0.0 | 0.00 | 0.00 | 0.00 | 96 | 1008.7 |
| 20260507215547 | 69 | 329 | 6.0 | 0.0 | 0.00 | 0.00 | 0.00 | 96 | 1008.7 |
| 20260507215027 | 69 | 266 | 5.0 | 0.0 | 0.00 | 0.00 | 0.00 | 98 | 1008.7 |
| 20260507214530 | 69 | 318 | 4.0 | 0.0 | 0.00 | 0.00 | 0.00 | 96 | 1008.7 |
| 20260507214052 | 69 | 302 | 5.0 | 0.0 | 0.00 | 0.00 | 0.00 | 97 | 1008.7 |
| 20260507213532 | 69 | 297 | 6.0 | 0.0 | 0.00 | 0.00 | 0.00 | 97 | 1008.8 |
| 20260507213046 | 68 | 316 | 3.0 | 0.0 | 0.00 | 0.00 | 0.00 | 97 | 1008.8 |
| 20260507212550 | 67 | 323 | 1.0 | 0.0 | 0.00 | 0.00 | 0.00 | 98 | 1008.8 |
| 20260507212113 | 66 | 286 | 0.0 | 0.0 | 0.00 | 0.00 | 0.00 | 97 | 1008.6 |
| 20260507211537 | 66 | 286 | 0.0 | 0.0 | 0.00 | 0.00 | 0.00 | 97 | 1008.6 |
| 20260507211041 | 65 | 286 | 0.0 | 0.0 | 0.00 | 0.00 | 0.00 | 96 | 1008.6 |
| 20260507210603 | 65 | 286 | 0.0 | 0.0 | 0.00 | 0.00 | 0.00 | 96 | 1008.3 |
| 20260507210051 | 65 | 169 | 0.0 | 0.0 | 0.00 | 0.00 | 0.00 | 96 | 1008.3 |
| 20260507205537 | 65 | 169 | 0.0 | 0.0 | 0.00 | 0.00 | 0.00 | 96 | 1008.3 |
| 20260507205101 | 65 | 169 | 0.0 | 0.0 | 0.00 | 0.00 | 0.00 | 96 | 1008.1 |
| 20260507204544 | 65 | 169 | 0.0 | 0.0 | 0.00 | 0.00 | 0.00 | 96 | 1008.1 |
| 20260507204031 | 65 | 169 | 0.0 | 0.0 | 0.00 | 0.00 | 0.00 | 96 | 1008.1 |
| 20260507203536 | 66 | 169 | 0.0 | 0.0 | 0.00 | 0.00 | 0.00 | 96 | 1008.0 |
| 20260507203043 | 66 | 169 | 0.0 | 0.0 | 0.00 | 0.00 | 0.00 | 96 | 1008.0 |
| 20260507202546 | 66 | 169 | 0.0 | 0.0 | 0.00 | 0.00 | 0.00 | 96 | 1008.0 |
| 20260507202030 | 66 | 169 | 0.0 | 0.0 | 0.00 | 0.00 | 0.00 | 96 | 1007.9 |
| 20260507201558 | 66 | 169 | 0.0 | 0.0 | 0.00 | 0.00 | 0.00 | 96 | 1007.9 |
| 20260507201044 | 66 | 169 | 0.0 | 0.0 | 0.00 | 0.00 | 0.00 | 96 | 1007.9 |
| 20260507200527 | 66 | 169 | 1.0 | 0.0 | 0.00 | 0.00 | 0.00 | 96 | 1007.9 |
| 20260507200055 | 66 | 169 | 1.0 | 0.0 | 0.00 | 0.00 | 0.00 | 96 | 1007.9 |
| 20260507195541 | 66 | 182 | 0.0 | 0.0 | 0.00 | 0.00 | 0.00 | 96 | 1007.9 |
| 20260507195041 | 65 | 183 | 0.0 | 0.0 | 0.00 | 0.00 | 0.00 | 96 | 1007.9 |
| 20260507194527 | 65 | 183 | 0.0 | 0.0 | 0.00 | 0.00 | 0.00 | 96 | 1007.9 |
| 20260507194035 | 65 | 183 | 0.0 | 0.0 | 0.00 | 0.00 | 0.00 | 96 | 1007.9 |
| 20260507193539 | 65 | 183 | 0.0 | 0.0 | 0.00 | 0.00 | 0.00 | 96 | 1008.1 |
| 20260507193026 | 65 | 183 | 0.0 | 0.0 | 0.00 | 0.00 | 0.00 | 96 | 1008.1 |
| 20260507192535 | 65 | 183 | 0.0 | 0.0 | 0.00 | 0.00 | 0.00 | 96 | 1008.1 |
| 20260507192059 | 65 | 183 | 0.0 | 0.0 | 0.00 | 0.00 | 0.00 | 96 | 1008.1 |
| 20260507191526 | 65 | 183 | 0.0 | 0.0 | 0.00 | 0.00 | 0.00 | 96 | 1008.1 |
| 20260507191029 | 65 | 183 | 0.0 | 0.0 | 0.00 | 0.00 | 0.00 | 96 | 1008.1 |
| 20260507190554 | 65 | 183 | 0.0 | 0.0 | 0.00 | 0.00 | 0.00 | 96 | 1008.1 |
| 20260507190039 | 65 | 183 | 0.0 | 0.0 | 0.00 | 0.00 | 0.00 | 96 | 1008.1 |
| 20260507185546 | 65 | 183 | 0.0 | 0.0 | 0.00 | 0.00 | 0.00 | 96 | 1008.1 |
| 20260507185030 | 65 | 183 | 0.0 | 0.0 | 0.00 | 0.00 | 0.00 | 96 | 1008.2 |
| 20260507184539 | 65 | 183 | 0.0 | 0.0 | 0.00 | 0.00 | 0.00 | 96 | 1008.2 |
| 20260507184046 | 65 | 183 | 1.0 | 0.0 | 0.00 | 0.00 | 0.00 | 96 | 1008.2 |
| 20260507183529 | 65 | 183 | 1.0 | 0.0 | 0.00 | 0.00 | 0.00 | 96 | 1008.3 |
| 20260507183034 | 65 | 134 | 0.0 | 0.0 | 0.00 | 0.00 | 0.00 | 96 | 1008.3 |
| 20260507182541 | 65 | 218 | 0.0 | 0.0 | 0.00 | 0.00 | 0.00 | 96 | 1008.3 |
| 20260507182026 | 65 | 218 | 0.0 | 0.0 | 0.00 | 0.00 | 0.00 | 96 | 1008.2 |
| 20260507181534 | 65 | 218 | 0.0 | 0.0 | 0.00 | 0.00 | 0.00 | 96 | 1008.2 |
| 20260507181042 | 65 | 218 | 0.0 | 0.0 | 0.00 | 0.00 | 0.00 | 96 | 1008.2 |
| 20260507180547 | 65 | 218 | 0.0 | 0.0 | 0.00 | 0.00 | 0.00 | 96 | 1008.3 |
| 20260507180034 | 65 | 218 | 0.0 | 0.0 | 0.00 | 0.00 | 0.00 | 96 | 1008.3 |
| 20260507175537 | 65 | 218 | 0.0 | 0.0 | 0.00 | 0.00 | 0.00 | 96 | 1008.3 |
| 20260507175040 | 65 | 218 | 0.0 | 0.0 | 0.00 | 0.00 | 0.00 | 96 | 1008.3 |
| 20260507174549 | 65 | 218 | 0.0 | 0.0 | 0.00 | 0.00 | 0.00 | 96 | 1008.3 |
| 20260507174035 | 65 | 218 | 0.0 | 0.0 | 0.00 | 0.00 | 0.00 | 96 | 1008.3 |
| 20260507173539 | 65 | 218 | 0.0 | 0.0 | 0.00 | 0.00 | 0.00 | 96 | 1008.6 |
| 20260507173054 | 65 | 218 | 0.0 | 0.0 | 0.00 | 0.00 | 0.00 | 96 | 1008.6 |
| 20260507172531 | 65 | 222 | 0.0 | 0.0 | 0.00 | 0.00 | 0.00 | 96 | 1008.6 |
| 20260507172035 | 65 | 222 | 0.0 | 0.0 | 0.00 | 0.00 | 0.00 | 96 | 1008.7 |
| 20260507171539 | 65 | 222 | 0.0 | 0.0 | 0.00 | 0.00 | 0.00 | 96 | 1008.7 |
| 20260507171054 | 65 | 222 | 1.0 | 0.0 | 0.00 | 0.00 | 0.00 | 96 | 1008.7 |
| 20260507170528 | 65 | 222 | 0.0 | 0.0 | 0.00 | 0.00 | 0.00 | 96 | 1008.7 |
| 20260507170045 | 65 | 222 | 0.0 | 0.0 | 0.00 | 0.00 | 0.00 | 96 | 1008.7 |
| 20260507165550 | 65 | 222 | 0.0 | 0.0 | 0.00 | 0.00 | 0.00 | 96 | 1008.7 |
| 20260507165052 | 65 | 222 | 0.0 | 0.0 | 0.00 | 0.00 | 0.00 | 96 | 1008.8 |
| 20260507164540 | 65 | 222 | 0.0 | 0.0 | 0.00 | 0.00 | 0.00 | 96 | 1008.8 |
| 20260507164043 | 65 | 222 | 0.0 | 0.0 | 0.00 | 0.00 | 0.00 | 96 | 1008.8 |
| 20260507163547 | 65 | 222 | 0.0 | 0.0 | 0.00 | 0.00 | 0.00 | 96 | 1009.2 |
| 20260507163027 | 65 | 222 | 0.0 | 0.0 | 0.00 | 0.00 | 0.00 | 96 | 1009.2 |
| 20260507162604 | 65 | 222 | 0.0 | 0.0 | 0.00 | 0.00 | 0.00 | 96 | 1009.2 |
| 20260507162046 | 65 | 222 | 0.0 | 0.0 | 0.00 | 0.00 | 0.00 | 96 | 1009.2 |
| 20260507161556 | 65 | 222 | 0.0 | 0.0 | 0.00 | 0.00 | 0.00 | 96 | 1009.2 |
| 20260507161039 | 65 | 222 | 1.0 | 0.0 | 0.00 | 0.00 | 0.00 | 96 | 1009.2 |
| 20260507160544 | 65 | 222 | 2.0 | 0.0 | 0.00 | 0.00 | 0.00 | 96 | 1009.2 |
| 20260507160047 | 65 | 222 | 1.0 | 0.0 | 0.00 | 0.00 | 0.00 | 96 | 1009.2 |
| 20260507155531 | 65 | 181 | 0.0 | 0.0 | 0.00 | 0.00 | 0.00 | 96 | 1009.2 |
| 20260507155035 | 65 | 181 | 0.0 | 0.0 | 0.00 | 0.00 | 0.00 | 96 | 1009.5 |
| 20260507154543 | 65 | 181 | 0.0 | 0.0 | 0.00 | 0.00 | 0.00 | 96 | 1009.5 |
| 20260507154030 | 65 | 181 | 0.0 | 0.0 | 0.00 | 0.00 | 0.00 | 96 | 1009.5 |
| 20260507153535 | 65 | 181 | 1.0 | 0.0 | 0.00 | 0.00 | 0.00 | 96 | 1009.5 |
| 20260507153042 | 65 | 181 | 1.0 | 0.0 | 0.00 | 0.00 | 0.00 | 96 | 1009.5 |
| 20260507152605 | 66 | 160 | 0.0 | 0.0 | 0.00 | 0.00 | 0.00 | 95 | 1009.5 |
| 20260507152027 | 66 | 160 | 0.0 | 0.0 | 0.00 | 0.00 | 0.00 | 96 | 1009.6 |
| 20260507151555 | 66 | 160 | 0.0 | 0.0 | 0.00 | 0.00 | 0.00 | 95 | 1009.6 |
| 20260507151040 | 66 | 160 | 0.0 | 0.0 | 0.00 | 0.00 | 0.00 | 95 | 1009.6 |
| 20260507150543 | 66 | 160 | 0.0 | 0.0 | 0.00 | 0.00 | 0.00 | 95 | 1009.6 |
| 20260507150124 | 66 | 160 | 0.0 | 0.0 | 0.00 | 0.00 | 0.00 | 95 | 1009.6 |
| 20260507145533 | 66 | 160 | 0.0 | 0.0 | 0.00 | 0.00 | 0.00 | 95 | 1009.6 |
| 20260507145040 | 66 | 160 | 1.0 | 0.0 | 0.00 | 0.00 | 0.00 | 95 | 1009.6 |
| 20260507144543 | 66 | 160 | 1.0 | 0.0 | 0.00 | 0.00 | 0.00 | 95 | 1009.6 |
| 20260507144031 | 66 | 160 | 0.0 | 0.0 | 0.00 | 0.00 | 0.00 | 95 | 1009.6 |
| 20260507143536 | 66 | 160 | 1.0 | 0.0 | 0.00 | 0.00 | 0.00 | 95 | 1009.4 |
| 20260507143044 | 66 | 160 | 1.0 | 0.0 | 0.00 | 0.00 | 0.00 | 95 | 1009.4 |
| 20260507142532 | 66 | 160 | 1.0 | 0.0 | 0.00 | 0.00 | 0.00 | 94 | 1009.4 |
| 20260507142058 | 66 | 160 | 0.0 | 0.0 | 0.00 | 0.00 | 0.00 | 94 | 1009.6 |
| 20260507141545 | 66 | 160 | 0.0 | 0.0 | 0.00 | 0.00 | 0.00 | 94 | 1009.6 |
| 20260507141033 | 66 | 160 | 0.0 | 0.0 | 0.00 | 0.00 | 0.00 | 94 | 1009.6 |
| 20260507140534 | 66 | 160 | 0.0 | 0.0 | 0.00 | 0.00 | 0.00 | 94 | 1009.4 |
| 20260507140042 | 66 | 160 | 0.0 | 0.0 | 0.00 | 0.00 | 0.00 | 94 | 1009.4 |
| 20260507135530 | 67 | 160 | 0.0 | 0.0 | 0.00 | 0.00 | 0.00 | 94 | 1009.4 |
| 20260507135035 | 67 | 160 | 0.0 | 0.0 | 0.00 | 0.00 | 0.00 | 94 | 1009.5 |
| 20260507134542 | 66 | 160 | 0.0 | 0.0 | 0.00 | 0.00 | 0.00 | 94 | 1009.5 |
| 20260507134031 | 66 | 160 | 0.0 | 0.0 | 0.00 | 0.00 | 0.00 | 93 | 1009.5 |
| 20260507133534 | 66 | 160 | 0.0 | 0.0 | 0.00 | 0.00 | 0.00 | 93 | 1009.7 |
| 20260507133038 | 67 | 160 | 0.0 | 0.0 | 0.00 | 0.00 | 0.00 | 93 | 1009.7 |
| 20260507132546 | 67 | 160 | 0.0 | 0.0 | 0.00 | 0.00 | 0.00 | 93 | 1009.7 |
| 20260507132031 | 67 | 160 | 0.0 | 0.0 | 0.00 | 0.00 | 0.00 | 93 | 1009.8 |
| 20260507131538 | 67 | 160 | 0.0 | 0.0 | 0.00 | 0.00 | 0.00 | 93 | 1009.8 |
| 20260507131046 | 67 | 149 | 1.0 | 0.0 | 0.00 | 0.00 | 0.00 | 93 | 1009.8 |
| 20260507130530 | 67 | 146 | 1.0 | 0.0 | 0.00 | 0.00 | 0.00 | 93 | 1009.8 |
| 20260507130038 | 67 | 146 | 1.0 | 0.0 | 0.00 | 0.00 | 0.00 | 93 | 1009.8 |
| 20260507125555 | 67 | 255 | 0.0 | 0.0 | 0.00 | 0.00 | 0.00 | 93 | 1009.8 |
| 20260507125026 | 67 | 255 | 0.0 | 0.0 | 0.00 | 0.00 | 0.00 | 92 | 1009.9 |
| 20260507124534 | 67 | 255 | 0.0 | 0.0 | 0.00 | 0.00 | 0.00 | 92 | 1009.9 |
| 20260507124103 | 67 | 255 | 0.0 | 0.0 | 0.00 | 0.00 | 0.00 | 92 | 1009.9 |
| 20260507123527 | 67 | 255 | 0.0 | 0.0 | 0.00 | 0.00 | 0.00 | 92 | 1009.8 |
| 20260507123034 | 67 | 255 | 0.0 | 0.0 | 0.00 | 0.00 | 0.00 | 91 | 1009.8 |
| 20260507122551 | 67 | 255 | 0.0 | 0.0 | 0.00 | 0.00 | 0.00 | 91 | 1009.8 |
| 20260507122026 | 67 | 255 | 0.0 | 0.0 | 0.00 | 0.00 | 0.00 | 91 | 1009.6 |
| 20260507121534 | 67 | 255 | 0.0 | 0.0 | 0.00 | 0.00 | 0.00 | 91 | 1009.6 |
| 20260507121037 | 67 | 255 | 0.0 | 0.0 | 0.00 | 0.00 | 0.00 | 91 | 1009.6 |
| 20260507120549 | 67 | 255 | 0.0 | 0.0 | 0.00 | 0.00 | 0.00 | 91 | 1009.5 |
| 20260507120050 | 67 | 255 | 0.0 | 0.0 | 0.00 | 0.00 | 0.00 | 91 | 1009.5 |
| 20260507115536 | 67 | 255 | 0.0 | 0.0 | 0.00 | 0.00 | 0.00 | 91 | 1009.5 |
| 20260507115047 | 67 | 255 | 0.0 | 0.0 | 0.00 | 0.00 | 0.00 | 91 | 1009.3 |
| 20260507114527 | 68 | 255 | 1.0 | 0.0 | 0.00 | 0.00 | 0.00 | 90 | 1009.3 |
| 20260507114043 | 68 | 255 | 1.0 | 0.0 | 0.00 | 0.00 | 0.00 | 90 | 1009.3 |
| 20260507113542 | 68 | 116 | 0.0 | 0.0 | 0.00 | 0.00 | 0.00 | 90 | 1009.2 |
| 20260507113050 | 68 | 116 | 0.0 | 0.0 | 0.00 | 0.00 | 0.00 | 89 | 1009.2 |
| 20260507112530 | 68 | 116 | 0.0 | 0.0 | 0.00 | 0.00 | 0.00 | 89 | 1009.2 |
| 20260507112042 | 68 | 116 | 0.0 | 0.0 | 0.00 | 0.00 | 0.00 | 88 | 1008.9 |
| 20260507111549 | 68 | 116 | 1.0 | 0.0 | 0.00 | 0.00 | 0.00 | 88 | 1008.9 |
| 20260507111039 | 69 | 103 | 1.0 | 0.0 | 0.00 | 0.00 | 0.00 | 88 | 1008.9 |
| 20260507110541 | 69 | 103 | 0.0 | 0.0 | 0.00 | 0.00 | 0.00 | 88 | 1009.0 |
| 20260507110048 | 69 | 92 | 0.0 | 0.0 | 0.00 | 0.00 | 0.00 | 88 | 1009.0 |
| 20260507105552 | 69 | 92 | 0.0 | 0.0 | 0.00 | 0.00 | 0.00 | 88 | 1009.0 |
| 20260507105037 | 70 | 92 | 0.0 | 0.0 | 0.00 | 0.00 | 0.00 | 88 | 1008.8 |
| 20260507104545 | 70 | 92 | 0.0 | 0.0 | 0.00 | 0.00 | 0.00 | 87 | 1008.8 |
| 20260507104035 | 70 | 92 | 0.0 | 0.0 | 0.00 | 0.00 | 0.00 | 87 | 1008.8 |
| 20260507103539 | 71 | 354 | 0.0 | 0.0 | 0.00 | 0.00 | 0.00 | 86 | 1008.8 |
| 20260507103108 | 71 | 354 | 0.0 | 0.0 | 0.00 | 0.00 | 0.00 | 86 | 1008.8 |
| 20260507102535 | 71 | 354 | 0.0 | 0.0 | 0.00 | 0.00 | 0.00 | 85 | 1008.8 |
| 20260507102040 | 71 | 354 | 0.0 | 0.0 | 0.00 | 0.00 | 0.00 | 84 | 1008.7 |
| 20260507101605 | 71 | 354 | 0.0 | 0.0 | 0.00 | 0.00 | 0.00 | 83 | 1008.7 |
| 20260507101112 | 71 | 354 | 0.0 | 0.0 | 0.00 | 0.00 | 0.00 | 82 | 1008.7 |
| 20260507100536 | 71 | 354 | 1.0 | 0.0 | 0.00 | 0.00 | 0.00 | 81 | 1008.7 |
| 20260507100044 | 71 | 358 | 2.0 | 0.0 | 0.00 | 0.00 | 0.00 | 81 | 1008.7 |
| 20260507095552 | 72 | 303 | 3.0 | 0.0 | 0.00 | 0.00 | 0.00 | 80 | 1008.7 |
| 20260507095036 | 72 | 314 | 3.0 | 0.0 | 0.00 | 0.00 | 0.00 | 79 | 1008.7 |
| 20260507094605 | 72 | 307 | 3.0 | 0.0 | 0.00 | 0.00 | 0.00 | 77 | 1008.7 |
| 20260507094033 | 72 | 312 | 3.0 | 0.0 | 0.00 | 0.00 | 0.00 | 76 | 1008.7 |
| 20260507093533 | 72 | 309 | 3.0 | 0.0 | 0.00 | 0.00 | 0.00 | 76 | 1008.6 |
| 20260507093040 | 72 | 317 | 3.0 | 0.0 | 0.00 | 0.00 | 0.00 | 76 | 1008.6 |
| 20260507092548 | 72 | 314 | 4.0 | 0.0 | 0.00 | 0.00 | 0.00 | 76 | 1008.6 |
| 20260507092032 | 72 | 310 | 4.0 | 0.0 | 0.00 | 0.00 | 0.00 | 76 | 1008.4 |
| 20260507091540 | 72 | 317 | 5.0 | 0.0 | 0.00 | 0.00 | 0.00 | 76 | 1008.4 |
| 20260507091030 | 73 | 314 | 4.0 | 0.0 | 0.00 | 0.00 | 0.00 | 74 | 1008.4 |
| 20260507090533 | 73 | 323 | 3.0 | 0.0 | 0.00 | 0.00 | 0.00 | 74 | 1008.2 |
| 20260507090036 | 73 | 327 | 3.0 | 0.0 | 0.00 | 0.00 | 0.00 | 74 | 1008.2 |
| 20260507085543 | 73 | 338 | 3.0 | 0.0 | 0.00 | 0.00 | 0.00 | 75 | 1008.2 |
| 20260507085029 | 73 | 307 | 3.0 | 0.0 | 0.00 | 0.00 | 0.00 | 74 | 1008.2 |
| 20260507084535 | 73 | 330 | 3.0 | 0.0 | 0.00 | 0.00 | 0.00 | 73 | 1008.2 |
| 20260507084043 | 73 | 333 | 4.0 | 0.0 | 0.00 | 0.00 | 0.00 | 73 | 1008.2 |
| 20260507083528 | 73 | 331 | 4.0 | 0.0 | 0.00 | 0.00 | 0.00 | 73 | 1008.2 |
| 20260507083035 | 73 | 304 | 4.0 | 0.0 | 0.00 | 0.00 | 0.00 | 73 | 1008.2 |
| 20260507082543 | 73 | 339 | 5.0 | 0.0 | 0.00 | 0.00 | 0.00 | 73 | 1008.2 |
| 20260507082044 | 73 | 360 | 7.0 | 0.0 | 0.00 | 0.00 | 0.00 | 73 | 1008.2 |
| 20260507081531 | 74 | 299 | 6.0 | 0.0 | 0.00 | 0.00 | 0.00 | 73 | 1008.2 |
| 20260507081039 | 74 | 326 | 5.0 | 0.0 | 0.00 | 0.00 | 0.00 | 72 | 1008.2 |
| 20260507080543 | 74 | 354 | 5.0 | 0.0 | 0.00 | 0.00 | 0.00 | 70 | 1008.2 |
| 20260507080031 | 74 | 318 | 6.0 | 0.0 | 0.00 | 0.00 | 0.00 | 72 | 1008.2 |
| 20260507075559 | 73 | 360 | 6.0 | 0.0 | 0.00 | 0.00 | 0.00 | 72 | 1008.2 |
| 20260507075042 | 74 | 340 | 7.0 | 0.0 | 0.00 | 0.00 | 0.00 | 72 | 1008.2 |
| 20260507074529 | 74 | 352 | 7.0 | 0.0 | 0.00 | 0.00 | 0.00 | 71 | 1008.2 |
| 20260507074032 | 75 | 328 | 7.0 | 0.0 | 0.00 | 0.00 | 0.00 | 70 | 1008.2 |
| 20260507073537 | 75 | 315 | 6.0 | 0.0 | 0.00 | 0.00 | 0.00 | 69 | 1008.2 |
| 20260507073045 | 76 | 296 | 4.0 | 0.0 | 0.00 | 0.00 | 0.00 | 68 | 1008.2 |
| 20260507072553 | 76 | 314 | 3.0 | 0.0 | 0.00 | 0.00 | 0.00 | 67 | 1008.2 |
| 20260507072035 | 76 | 351 | 1.0 | 0.0 | 0.00 | 0.00 | 0.00 | 66 | 1008.2 |
| 20260507071541 | 76 | 36 | 2.0 | 0.0 | 0.00 | 0.00 | 0.00 | 67 | 1008.2 |
| 20260507071029 | 76 | 301 | 4.0 | 0.0 | 0.00 | 0.00 | 0.00 | 66 | 1008.2 |
| 20260507070529 | 76 | 327 | 4.0 | 0.0 | 0.00 | 0.00 | 0.00 | 65 | 1008.3 |
| 20260507070037 | 76 | 330 | 4.0 | 0.0 | 0.00 | 0.00 | 0.00 | 66 | 1008.3 |
| 20260507065606 | 75 | 314 | 5.0 | 0.0 | 0.00 | 0.00 | 0.00 | 67 | 1008.3 |
| 20260507065029 | 75 | 358 | 6.0 | 0.0 | 0.00 | 0.00 | 0.00 | 67 | 1008.5 |
| 20260507064537 | 75 | 352 | 6.0 | 0.0 | 0.00 | 0.00 | 0.00 | 66 | 1008.5 |
| 20260507064045 | 75 | 358 | 5.0 | 0.0 | 0.00 | 0.00 | 0.00 | 66 | 1008.5 |
| 20260507063529 | 76 | 323 | 4.0 | 0.0 | 0.00 | 0.00 | 0.00 | 67 | 1008.6 |
| 20260507063035 | 76 | 354 | 3.0 | 0.0 | 0.00 | 0.00 | 0.00 | 67 | 1008.6 |
| 20260507062535 | 75 | 8 | 4.0 | 0.0 | 0.00 | 0.00 | 0.00 | 68 | 1008.6 |
| 20260507062039 | 75 | 1 | 5.0 | 0.0 | 0.00 | 0.00 | 0.00 | 68 | 1008.7 |
| 20260507061548 | 75 | 349 | 5.0 | 0.0 | 0.00 | 0.00 | 0.00 | 69 | 1008.7 |
| 20260507061034 | 75 | 342 | 4.0 | 0.0 | 0.00 | 0.00 | 0.00 | 69 | 1008.7 |